TimeMST,TemperatureF,Dew PointF,Humidity,Sea Level PressureIn,VisibilityMPH,Wind Direction,Wind SpeedMPH,Gust SpeedMPH,PrecipitationIn,Events,Conditions,WindDirDegrees,DateUTC
12:53 AM,26.1,24.1,92,30.12,10.0,East,3.5,-,N/A,,Clear,100,2013-11-19 07:53:00
1:53 AM,27.0,25.0,92,30.10,10.0,NNE,4.6,-,N/A,,Clear,30,2013-11-19 08:53:00
2:53 AM,27.0,24.1,89,30.08,10.0,East,3.5,-,N/A,,Clear,90,2013-11-19 09:53:00
3:53 AM,27.0,24.1,89,30.08,10.0,Calm,Calm,-,N/A,,Clear,0,2013-11-19 10:53:00
4:53 AM,26.1,23.0,88,30.07,10.0,Calm,Calm,-,N/A,,Clear,0,2013-11-19 11:53:00
5:53 AM,26.1,23.0,88,30.09,10.0,East,4.6,-,N/A,,Clear,90,2013-11-19 12:53:00
6:53 AM,26.1,23.0,88,30.12,10.0,ENE,3.5,-,N/A,,Clear,60,2013-11-19 13:53:00
7:53 AM,30.9,27.0,85,30.11,10.0,East,3.5,-,N/A,,Partly Cloudy,80,2013-11-19 14:53:00
8:53 AM,37.0,33.1,86,30.08,10.0,Calm,Calm,-,N/A,,Clear,0,2013-11-19 15:53:00
9:53 AM,42.1,35.1,76,30.04,10.0,Calm,Calm,-,N/A,,Scattered Clouds,0,2013-11-19 16:53:00
10:53 AM,48.0,35.1,61,30.01,10.0,Calm,Calm,-,N/A,,Partly Cloudy,0,2013-11-19 17:53:00
11:53 AM,51.1,30.0,44,29.96,10.0,Calm,Calm,-,N/A,,Clear,0,2013-11-19 18:53:00
12:53 PM,53.1,33.1,47,29.93,10.0,SW,6.9,-,N/A,,Clear,230,2013-11-19 19:53:00
1:53 PM,54.0,32.0,43,29.90,10.0,SSW,13.8,-,N/A,,Clear,210,2013-11-19 20:53:00
2:53 PM,53.1,32.0,45,29.89,10.0,South,10.4,-,N/A,,Clear,190,2013-11-19 21:53:00
3:53 PM,50.0,34.0,54,29.89,10.0,NNW,4.6,-,N/A,,Clear,340,2013-11-19 22:53:00
4:53 PM,46.9,36.0,66,29.91,10.0,ENE,4.6,-,N/A,,Partly Cloudy,60,2013-11-19 23:53:00
5:53 PM,44.1,35.1,71,29.93,10.0,NE,4.6,-,N/A,,Partly Cloudy,50,2013-11-20 00:53:00
6:53 PM,43.0,34.0,71,29.94,10.0,Calm,Calm,-,N/A,,Clear,0,2013-11-20 01:53:00
7:53 PM,42.1,33.1,70,29.92,10.0,ENE,3.5,-,N/A,,Clear,70,2013-11-20 02:53:00
8:53 PM,39.0,33.1,79,29.93,10.0,ENE,5.8,-,N/A,,Overcast,70,2013-11-20 03:53:00
9:53 PM,34.0,30.0,85,29.94,10.0,ENE,3.5,-,N/A,,Mostly Cloudy,70,2013-11-20 04:53:00
10:53 PM,33.1,28.9,85,29.91,10.0,ENE,4.6,-,N/A,,Mostly Cloudy,70,2013-11-20 05:53:00
11:53 PM,32.0,28.0,85,29.90,10.0,ENE,5.8,-,N/A,,Clear,60,2013-11-20 06:53:00